This is the latest recevied weather packets stored in our database for station/object EW1958. If no packets are shown the sender has not sent any weather packets the latest 10 day(s).
| Time | Temp. | Humidity | Pressure | Rain* | Wind** | Luminosity | Snow |
|---|---|---|---|---|---|---|---|
| 1778103886 | 12.78° C | 82% | 1023.3 hPa | 0 mm | - | - | - |
| 1778103586 | 12.78° C | 84% | 1023.4 hPa | 0 mm | - | - | - |
| 1778103408 | 12.78° C | 85% | 1023.3 hPa | 0 mm | - | - | - |
| 1778102984 | 12.78° C | 86% | 1023.4 hPa | 0 mm | - | - | - |
| 1778102694 | 12.78° C | 85% | 1023.4 hPa | 0 mm | - | - | - |
| 1778102533 | 12.78° C | 88% | 1023.4 hPa | 0 mm | - | - | - |
| 1778102507 | 12.78° C | 87% | 1023.4 hPa | 0 mm | - | - | - |
| 1778101783 | 12.78° C | 89% | 1023.4 hPa | 0 mm | - | - | - |
| 1778101480 | 12.78° C | 88% | 1023.4 hPa | 0 mm | - | - | - |
| 1778101178 | 13.33° C | 87% | 1023.3 hPa | 0 mm | - | - | - |
| 1778100880 | 13.33° C | 88% | 1023.2 hPa | 0 mm | - | - | - |
| 1778100742 | 13.33° C | 87% | 1023.3 hPa | 0 mm | - | - | - |
| 1778100584 | 13.33° C | 87% | 1023.3 hPa | 0 mm | - | - | - |
| 1778099674 | 13.33° C | 87% | 1023.3 hPa | 0 mm | - | - | - |
| 1778099501 | 13.33° C | 86% | 1023.3 hPa | 0 mm | - | - | - |
| 1778099085 | 13.89° C | 84% | 1023.3 hPa | 0 mm | - | - | - |
| 1778099075 | 13.33° C | 84% | 1023.3 hPa | 0 mm | - | - | - |
| 1778098474 | 13.89° C | 83% | 1023.3 hPa | 0 mm | - | - | - |
| 1778098174 | 13.89° C | 83% | 1023.2 hPa | 0 mm | - | - | - |
| 1778098028 | 13.89° C | 82% | 1023.2 hPa | 0 mm | - | - | - |
| 1778097574 | 13.89° C | 82% | 1023.1 hPa | 0 mm | - | - | - |
| 1778097438 | 13.89° C | 82% | 1022.9 hPa | 0 mm | - | - | - |
| 1778097283 | 13.89° C | 83% | 1023 hPa | 0 mm | - | - | - |
| 1778096374 | 13.89° C | 83% | 1022.8 hPa | 0 mm | - | - | - |
| 1778096074 | 13.89° C | 83% | 1022.8 hPa | 0 mm | - | - | - |
* Rain latest hour (hover to see other rain measurements)
** Current wind speed in m/s (hover to see current wind gust speed)